04-05-2022, 00:00:00,    124,    0.0,   10.0,   0.00,   0.00, 1015.9,   82.8, -999.0
04-05-2022, 00:00:10,    125,    0.0,    9.9,   0.00,   0.00, 1015.9,   82.8, -999.0
04-05-2022, 00:00:20,    125,    0.0,   10.0,   0.00,   0.00, 1015.9,   82.9, -999.0
04-05-2022, 00:00:30,    124,    0.0,   10.0,   0.00,   0.00, 1015.8,   82.8, -999.0
04-05-2022, 00:00:40,    125,    0.0,   10.0,   0.00,   0.00, 1015.9,   82.9, -999.0
04-05-2022, 00:00:50,    125,    0.0,   10.0,   0.00,   0.00, 1015.9,   82.8, -999.0
04-05-2022, 00:01:00,    125,    0.0,    9.9,   0.00,   0.00, 1015.9,   82.9, -999.0
04-05-2022, 00:01:09,    125,    0.0,   10.0,   0.00,   0.00, 1015.9,   82.8, -999.0
04-05-2022, 00:01:20,    125,    0.0,   10.0,   0.00,   0.00, 1015.9,   82.8, -999.0
04-05-2022, 00:01:30,    125,    0.0,    9.9,   0.00,   0.00, 1015.9,   82.8, -999.0
04-05-2022, 00:01:39,    125,    0.0,    9.9,   0.00,   0.00, 1015.9,   82.6, -999.0
04-05-2022, 00:01:50,    125,    0.0,    9.9,   0.00,   0.00, 1015.9,   82.5, -999.0
04-05-2022, 00:02:00,    125,    0.0,    9.9,   0.00,   0.00, 1015.9,   82.4, -999.0
04-05-2022, 00:02:09,    125,    0.0,    9.9,   0.00,   0.00, 1015.9,   82.4, -999.0
04-05-2022, 00:02:19,    125,    0.0,    9.9,   0.00,   0.00, 1015.9,   82.4, -999.0
04-05-2022, 00:02:30,    125,    0.0,    9.9,   0.00,   0.00, 1015.9,   82.5, -999.0
04-05-2022, 00:02:39,    125,    0.0,    9.9,   0.00,   0.00, 1015.9,   82.5, -999.0
04-05-2022, 00:02:49,    125,    0.0,    9.9,   0.00,   0.00, 1015.9,   82.5, -999.0
04-05-2022, 00:02:59,    125,    0.0,   10.0,   0.00,   0.00, 1015.9,   82.5, -999.0
04-05-2022, 00:03:09,    124,    0.0,   10.0,   0.00,   0.00, 1015.9,   82.5, -999.0
04-05-2022, 00:03:19,    124,    0.0,    9.9,   0.00,   0.00, 1015.9,   82.4, -999.0
04-05-2022, 00:03:29,    124,    0.0,    9.9,   0.00,   0.00, 1015.9,   82.4, -999.0
04-05-2022, 00:03:39,    125,    0.0,    9.9,   0.00,   0.00, 1015.9,   82.5, -999.0
04-05-2022, 00:03:49,    124,    0.0,    9.9,   0.00,   0.00, 1015.9,   82.4, -999.0
04-05-2022, 00:03:59,    125,    0.0,    9.9,   0.00,   0.00, 1015.9,   82.5, -999.0
04-05-2022, 00:04:09,    124,    0.0,    9.9,   0.00,   0.00, 1015.9,   82.6, -999.0
04-05-2022, 00:04:19,    124,    0.0,    9.9,   0.00,   0.00, 1015.9,   82.6, -999.0
04-05-2022, 00:04:29,    125,    0.0,    9.9,   0.00,   0.00, 1015.9,   82.5, -999.0
04-05-2022, 00:04:39,    125,    0.0,    9.9,   0.00,   0.00, 1015.9,   82.5, -999.0
04-05-2022, 00:04:48,    125,    0.0,    9.8,   0.00,   0.00, 1015.9,   82.5, -999.0
04-05-2022, 00:04:59,    125,    0.0,    9.8,   0.00,   0.00, 1015.9,   82.6, -999.0
04-05-2022, 00:05:09,    124,    0.0,    9.9,   0.00,   0.00, 1015.9,   82.6, -999.0
04-05-2022, 00:05:18,    128,    0.0,    9.9,   0.00,   0.00, 1015.9,   82.7, -999.0
04-05-2022, 00:05:28,    125,    0.0,    9.9,   0.00,   0.00, 1015.9,   82.7, -999.0
04-05-2022, 00:05:39,    125,    0.0,   10.0,   0.00,   0.00, 1015.8,   82.7, -999.0
04-05-2022, 00:05:48,    125,    0.0,    9.8,   0.00,   0.00, 1015.9,   82.7, -999.0
04-05-2022, 00:05:58,    125,    0.0,    9.9,   0.00,   0.00, 1015.9,   82.6, -999.0
04-05-2022, 00:06:08,    124,    0.0,    9.9,   0.00,   0.00, 1015.9,   82.7, -999.0
04-05-2022, 00:06:18,    125,    0.0,   10.0,   0.00,   0.00, 1015.9,   82.6, -999.0
04-05-2022, 00:06:28,    124,    0.0,    9.9,   0.00,   0.00, 1015.9,   82.7, -999.0
04-05-2022, 00:06:38,    125,    0.0,    9.9,   0.00,   0.00, 1015.9,   82.7, -999.0
04-05-2022, 00:06:48,    124,    0.0,    9.9,   0.00,   0.00, 1015.9,   82.7, -999.0
04-05-2022, 00:06:58,    125,    0.0,   10.0,   0.00,   0.00, 1015.9,   82.7, -999.0
04-05-2022, 00:07:08,    125,    0.0,   10.0,   0.00,   0.00, 1015.9,   82.7, -999.0
04-05-2022, 00:07:18,    125,    0.0,   10.0,   0.00,   0.00, 1015.9,   82.7, -999.0
04-05-2022, 00:07:28,    125,    0.0,    9.9,   0.00,   0.00, 1015.9,   82.7, -999.0
04-05-2022, 00:07:38,    125,    0.0,    9.8,   0.00,   0.00, 1015.9,   82.7, -999.0
04-05-2022, 00:07:48,    125,    0.0,    9.9,   0.00,   0.00, 1015.9,   82.7, -999.0
04-05-2022, 00:07:58,    125,    0.0,    9.9,   0.00,   0.00, 1015.9,   82.7, -999.0
04-05-2022, 00:08:08,    125,    0.0,    9.9,   0.00,   0.00, 1015.9,   82.6, -999.0
04-05-2022, 00:08:18,    125,    0.0,    9.9,   0.00,   0.00, 1015.9,   82.4, -999.0
04-05-2022, 00:08:27,    125,    0.0,    9.9,   0.00,   0.00, 1015.9,   82.4, -999.0
04-05-2022, 00:08:38,    125,    0.0,    9.9,   0.00,   0.00, 1015.9,   82.5, -999.0
04-05-2022, 00:08:48,    125,    0.0,    9.9,   0.00,   0.00, 1015.9,   82.4, -999.0
04-05-2022, 00:08:57,    125,    0.0,    9.8,   0.00,   0.00, 1015.9,   82.5, -999.0
04-05-2022, 00:09:07,    125,    0.0,    9.9,   0.00,   0.00, 1015.9,   82.5, -999.0
04-05-2022, 00:09:17,    125,    0.0,    9.8,   0.00,   0.00, 1015.9,   82.6, -999.0
04-05-2022, 00:09:27,    125,    0.0,    9.8,   0.00,   0.00, 1015.9,   82.6, -999.0
04-05-2022, 00:09:37,    125,    0.0,    9.8,   0.00,   0.00, 1015.9,   82.6, -999.0
04-05-2022, 00:09:47,    125,    0.0,    9.7,   0.00,   0.00, 1015.9,   82.5, -999.0
04-05-2022, 00:09:57,    125,    0.0,    9.7,   0.00,   0.00, 1015.9,   82.5, -999.0
04-05-2022, 00:10:07,    125,    0.0,    9.6,   0.00,   0.00, 1015.9,   82.5, -999.0
04-05-2022, 00:10:17,    125,    0.0,    9.5,   0.00,   0.00, 1015.9,   82.6, -999.0
04-05-2022, 00:10:27,    125,    0.0,    9.5,   0.00,   0.00, 1015.9,   82.5, -999.0
04-05-2022, 00:10:37,    125,    0.0,    9.5,   0.00,   0.00, 1015.9,   82.7, -999.0
04-05-2022, 00:10:47,    125,    0.0,    9.4,   0.00,   0.00, 1015.9,   82.8, -999.0
04-05-2022, 00:10:57,    125,    0.0,    9.6,   0.00,   0.00, 1015.9,   82.8, -999.0
04-05-2022, 00:11:07,    125,    0.0,    9.4,   0.00,   0.00, 1015.9,   82.8, -999.0
04-05-2022, 00:11:17,    125,    0.0,    9.4,   0.00,   0.00, 1015.9,   82.9, -999.0
04-05-2022, 00:11:27,    124,    0.0,    9.4,   0.00,   0.00, 1015.9,   83.1, -999.0
04-05-2022, 00:11:36,    125,    0.0,    9.4,   0.00,   0.00, 1015.9,   83.2, -999.0
04-05-2022, 00:11:47,    125,    0.0,    9.4,   0.00,   0.00, 1015.9,   83.4, -999.0
04-05-2022, 00:11:57,    125,    0.0,    9.4,   0.00,   0.00, 1015.9,   83.5, -999.0
04-05-2022, 00:12:06,    125,    0.0,    9.3,   0.00,   0.00, 1015.9,   83.5, -999.0
04-05-2022, 00:12:16,    125,    0.0,    9.3,   0.00,   0.00, 1015.9,   83.8, -999.0
04-05-2022, 00:12:27,    125,    0.0,    9.4,   0.00,   0.00, 1015.9,   83.8, -999.0
04-05-2022, 00:12:36,    125,    0.0,    9.3,   0.00,   0.00, 1015.9,   84.0, -999.0
04-05-2022, 00:12:46,    125,    0.0,    9.4,   0.00,   0.00, 1016.0,   84.1, -999.0
04-05-2022, 00:12:56,    125,    0.0,    9.4,   0.00,   0.00, 1015.9,   84.2, -999.0
04-05-2022, 00:13:06,    124,    0.0,    9.4,   0.00,   0.00, 1015.9,   84.2, -999.0
04-05-2022, 00:13:16,    124,    0.0,    9.3,   0.00,   0.00, 1015.9,   84.1, -999.0
04-05-2022, 00:13:26,    125,    0.0,    9.3,   0.00,   0.00, 1015.9,   84.1, -999.0
04-05-2022, 00:13:36,    125,    0.0,    9.3,   0.00,   0.00, 1015.9,   84.3, -999.0
04-05-2022, 00:13:46,    125,    0.0,    9.3,   0.00,   0.00, 1015.9,   84.3, -999.0
04-05-2022, 00:13:56,    125,    0.0,    9.3,   0.00,   0.00, 1015.9,   84.4, -999.0
04-05-2022, 00:14:06,    125,    0.0,    9.3,   0.00,   0.00, 1015.9,   84.4, -999.0
04-05-2022, 00:14:16,    125,    0.0,    9.3,   0.00,   0.00, 1015.9,   84.5, -999.0
04-05-2022, 00:14:26,    125,    0.0,    9.4,   0.00,   0.00, 1015.9,   84.5, -999.0
04-05-2022, 00:14:36,    125,    0.0,    9.3,   0.00,   0.00, 1015.9,   84.7, -999.0
04-05-2022, 00:14:45,    125,    0.0,    9.3,   0.00,   0.00, 1015.9,   84.7, -999.0
04-05-2022, 00:14:56,    125,    0.0,    9.4,   0.00,   0.00, 1016.0,   84.6, -999.0
04-05-2022, 00:15:06,    125,    0.0,    9.4,   0.00,   0.00, 1015.9,   84.7, -999.0
04-05-2022, 00:15:15,    125,    0.0,    9.4,   0.00,   0.00, 1015.9,   84.6, -999.0
04-05-2022, 00:15:25,    125,    0.0,    9.4,   0.00,   0.00, 1015.9,   84.7, -999.0
04-05-2022, 00:15:36,    125,    0.0,    9.4,   0.00,   0.00, 1015.9,   84.8, -999.0
04-05-2022, 00:15:45,    125,    0.0,    9.4,   0.00,   0.00, 1015.9,   84.9, -999.0
04-05-2022, 00:15:55,    125,    0.0,    9.2,   0.00,   0.00, 1015.9,   84.9, -999.0
04-05-2022, 00:16:05,    125,    0.0,    9.3,   0.00,   0.00, 1015.9,   84.9, -999.0
04-05-2022, 00:16:15,    125,    0.0,    9.3,   0.00,   0.00, 1015.9,   85.1, -999.0
04-05-2022, 00:16:25,    125,    0.0,    9.3,   0.00,   0.00, 1015.9,   85.1, -999.0
04-05-2022, 00:16:35,    125,    0.0,    9.3,   0.00,   0.00, 1015.9,   85.1, -999.0
04-05-2022, 00:16:45,    125,    0.0,    9.3,   0.00,   0.00, 1015.9,   85.2, -999.0
04-05-2022, 00:16:55,    125,    0.0,    9.3,   0.00,   0.00, 1015.9,   85.2, -999.0
04-05-2022, 00:17:05,    125,    0.0,    9.2,   0.00,   0.00, 1015.9,   85.2, -999.0
04-05-2022, 00:17:15,    125,    0.0,    9.3,   0.00,   0.00, 1015.9,   85.3, -999.0
04-05-2022, 00:17:25,    125,    0.0,    9.1,   0.00,   0.00, 1015.9,   85.4, -999.0
04-05-2022, 00:17:35,    119,    0.0,    9.2,   0.00,   0.00, 1015.9,   85.6, -999.0
04-05-2022, 00:17:45,    125,    0.0,    9.2,   0.00,   0.00, 1015.9,   85.5, -999.0
04-05-2022, 00:17:55,    125,    0.0,    9.2,   0.00,   0.00, 1015.9,   85.7, -999.0
04-05-2022, 00:18:05,    125,    0.0,    9.3,   0.00,   0.00, 1015.9,   85.9, -999.0
04-05-2022, 00:18:15,    125,    0.0,    9.2,   0.00,   0.00, 1015.9,   85.9, -999.0
04-05-2022, 00:18:24,    125,    0.0,    9.2,   0.00,   0.00, 1015.9,   85.9, -999.0
04-05-2022, 00:18:35,    125,    0.0,    9.2,   0.00,   0.00, 1016.0,   86.0, -999.0
04-05-2022, 00:18:45,    125,    0.0,    9.2,   0.00,   0.00, 1015.9,   86.1, -999.0
04-05-2022, 00:18:54,    125,    0.0,    9.1,   0.00,   0.00, 1015.9,   86.1, -999.0
04-05-2022, 00:19:04,    125,    0.0,    9.2,   0.00,   0.00, 1015.9,   86.1, -999.0
04-05-2022, 00:19:14,    124,    0.0,    9.2,   0.00,   0.00, 1015.9,   86.3, -999.0
04-05-2022, 00:19:24,    125,    0.0,    9.2,   0.00,   0.00, 1015.9,   86.3, -999.0
04-05-2022, 00:19:34,    125,    0.0,    9.1,   0.00,   0.00, 1015.9,   86.4, -999.0
04-05-2022, 00:19:44,    125,    0.0,    9.1,   0.00,   0.00, 1015.9,   86.4, -999.0
04-05-2022, 00:19:54,    125,    0.0,    9.2,   0.00,   0.00, 1015.9,   86.5, -999.0
04-05-2022, 00:20:04,    124,    0.0,    9.1,   0.00,   0.00, 1015.9,   86.6, -999.0
04-05-2022, 00:20:14,    125,    0.0,    9.2,   0.00,   0.00, 1015.9,   86.5, -999.0
04-05-2022, 00:20:24,    125,    0.0,    9.2,   0.00,   0.00, 1016.0,   86.6, -999.0
04-05-2022, 00:20:34,    125,    0.0,    9.1,   0.00,   0.00, 1015.9,   86.6, -999.0
04-05-2022, 00:20:44,    125,    0.0,    9.2,   0.00,   0.00, 1015.9,   86.8, -999.0
04-05-2022, 00:20:54,    122,    0.0,    9.2,   0.00,   0.00, 1016.0,   86.9, -999.0
04-05-2022, 00:21:04,    125,    0.0,    9.2,   0.00,   0.00, 1015.9,   86.8, -999.0
04-05-2022, 00:21:14,    125,    0.0,    9.2,   0.00,   0.00, 1016.0,   86.9, -999.0
04-05-2022, 00:21:24,    124,    0.0,    9.2,   0.00,   0.00, 1016.0,   86.8, -999.0
04-05-2022, 00:21:33,    125,    0.0,    9.2,   0.00,   0.00, 1016.0,   87.0, -999.0
04-05-2022, 00:21:44,    124,    0.0,    9.2,   0.00,   0.00, 1016.0,   87.1, -999.0
04-05-2022, 00:21:54,    125,    0.0,    9.2,   0.00,   0.00, 1016.0,   87.1, -999.0
04-05-2022, 00:22:03,    125,    0.0,    9.2,   0.00,   0.00, 1016.0,   87.1, -999.0
04-05-2022, 00:22:13,    125,    0.0,    9.2,   0.00,   0.00, 1015.9,   87.1, -999.0
04-05-2022, 00:22:24,    125,    0.0,    9.2,   0.00,   0.00, 1015.9,   87.1, -999.0
04-05-2022, 00:22:33,    125,    0.0,    9.2,   0.00,   0.00, 1016.0,   87.2, -999.0
04-05-2022, 00:22:43,    124,    0.0,    9.3,   0.00,   0.00, 1016.0,   87.2, -999.0
04-05-2022, 00:22:53,    125,    0.0,    9.3,   0.00,   0.00, 1015.9,   87.2, -999.0
04-05-2022, 00:23:03,    125,    0.0,    9.1,   0.00,   0.00, 1016.0,   87.2, -999.0
04-05-2022, 00:23:13,    125,    0.0,    9.2,   0.00,   0.00, 1016.0,   87.3, -999.0
04-05-2022, 00:23:23,    125,    0.0,    9.2,   0.00,   0.00, 1016.0,   87.3, -999.0
04-05-2022, 00:23:33,    125,    0.0,    9.2,   0.00,   0.00, 1016.0,   87.3, -999.0
04-05-2022, 00:23:43,    125,    0.0,    9.2,   0.00,   0.00, 1016.0,   87.3, -999.0
04-05-2022, 00:23:53,    125,    0.0,    9.1,   0.00,   0.00, 1016.0,   87.4, -999.0
04-05-2022, 00:24:03,    125,    0.0,    9.2,   0.00,   0.00, 1016.0,   87.4, -999.0
04-05-2022, 00:24:13,    125,    0.0,    9.2,   0.00,   0.00, 1016.0,   87.4, -999.0
04-05-2022, 00:24:23,    125,    0.0,    9.3,   0.00,   0.00, 1016.0,   87.4, -999.0
04-05-2022, 00:24:33,    125,    0.0,    9.2,   0.00,   0.00, 1016.0,   87.4, -999.0
04-05-2022, 00:24:42,    125,    0.0,    9.3,   0.00,   0.00, 1016.0,   87.4, -999.0
04-05-2022, 00:24:53,    125,    0.0,    9.3,   0.00,   0.00, 1016.0,   87.4, -999.0
04-05-2022, 00:25:03,    124,    0.0,    9.3,   0.00,   0.00, 1016.0,   87.4, -999.0
04-05-2022, 00:25:12,    124,    0.0,    9.2,   0.00,   0.00, 1016.0,   87.4, -999.0
04-05-2022, 00:25:22,    125,    0.0,    9.2,   0.00,   0.00, 1016.0,   87.5, -999.0
04-05-2022, 00:25:33,    125,    0.0,    9.2,   0.00,   0.00, 1016.0,   87.4, -999.0
04-05-2022, 00:25:42,    125,    0.0,    9.3,   0.00,   0.00, 1016.0,   87.5, -999.0
04-05-2022, 00:25:52,    125,    0.0,    9.3,   0.00,   0.00, 1016.0,   87.6, -999.0
04-05-2022, 00:26:02,    124,    0.0,    9.3,   0.00,   0.00, 1016.0,   87.6, -999.0
04-05-2022, 00:26:12,    125,    0.0,    9.3,   0.00,   0.00, 1016.0,   87.5, -999.0
04-05-2022, 00:26:22,    124,    0.0,    9.2,   0.00,   0.00, 1016.0,   87.6, -999.0
04-05-2022, 00:26:32,    125,    0.0,    9.2,   0.00,   0.00, 1016.0,   87.5, -999.0
04-05-2022, 00:26:42,    125,    0.0,    9.2,   0.00,   0.00, 1016.0,   87.5, -999.0
04-05-2022, 00:26:52,    125,    0.0,    9.3,   0.00,   0.00, 1016.0,   87.5, -999.0
04-05-2022, 00:27:02,    125,    0.0,    9.3,   0.00,   0.00, 1016.0,   87.6, -999.0
04-05-2022, 00:27:12,    125,    0.0,    9.3,   0.00,   0.00, 1016.0,   87.6, -999.0
04-05-2022, 00:27:22,    125,    0.0,    9.3,   0.00,   0.00, 1016.0,   87.7, -999.0
04-05-2022, 00:27:32,    125,    0.0,    9.3,   0.00,   0.00, 1016.0,   87.6, -999.0
04-05-2022, 00:27:42,    125,    0.0,    9.2,   0.00,   0.00, 1016.0,   87.6, -999.0
04-05-2022, 00:27:52,    125,    0.0,    9.3,   0.00,   0.00, 1016.0,   87.7, -999.0
04-05-2022, 00:28:02,    125,    0.0,    9.3,   0.00,   0.00, 1016.0,   87.8, -999.0
04-05-2022, 00:28:12,    125,    0.0,    9.3,   0.00,   0.00, 1016.0,   87.7, -999.0
04-05-2022, 00:28:21,    125,    0.0,    9.3,   0.00,   0.00, 1016.0,   87.7, -999.0
04-05-2022, 00:28:32,    125,    0.0,    9.3,   0.00,   0.00, 1016.0,   87.8, -999.0
04-05-2022, 00:28:42,    125,    0.0,    9.3,   0.00,   0.00, 1016.0,   87.8, -999.0
04-05-2022, 00:28:51,    125,    0.0,    9.3,   0.00,   0.00, 1016.0,   87.9, -999.0
04-05-2022, 00:29:01,    125,    0.0,    9.4,   0.00,   0.00, 1016.0,   87.9, -999.0
04-05-2022, 00:29:12,    125,    0.0,    9.3,   0.00,   0.00, 1016.0,   87.8, -999.0
04-05-2022, 00:29:21,    125,    0.0,    9.3,   0.00,   0.00, 1015.9,   87.9, -999.0
04-05-2022, 00:29:31,    125,    0.0,    9.3,   0.00,   0.00, 1016.0,   87.9, -999.0
04-05-2022, 00:29:41,    125,    0.0,    9.3,   0.00,   0.00, 1015.9,   88.0, -999.0
04-05-2022, 00:29:51,    124,    0.0,    9.3,   0.00,   0.00, 1015.9,   87.9, -999.0
04-05-2022, 00:30:01,    125,    0.0,    9.3,   0.00,   0.00, 1016.0,   87.8, -999.0
04-05-2022, 00:30:11,    124,    0.0,    9.3,   0.00,   0.00, 1015.9,   88.0, -999.0
04-05-2022, 00:30:21,    125,    0.0,    9.3,   0.00,   0.00, 1015.9,   88.0, -999.0
04-05-2022, 00:30:31,    125,    0.0,    9.3,   0.00,   0.00, 1016.0,   88.0, -999.0
04-05-2022, 00:30:41,    125,    0.0,    9.3,   0.00,   0.00, 1015.9,   88.0, -999.0
04-05-2022, 00:30:51,    124,    0.0,    9.3,   0.00,   0.00, 1016.0,   88.0, -999.0
04-05-2022, 00:31:01,    125,    0.0,    9.3,   0.00,   0.00, 1015.9,   88.0, -999.0
04-05-2022, 00:31:11,    125,    0.0,    9.3,   0.00,   0.00, 1015.9,   88.0, -999.0
04-05-2022, 00:31:21,    125,    0.0,    9.3,   0.00,   0.00, 1015.9,   88.0, -999.0
04-05-2022, 00:31:30,    124,    0.0,    9.3,   0.00,   0.00, 1015.9,   88.0, -999.0
04-05-2022, 00:31:41,    125,    0.0,    9.4,   0.00,   0.00, 1015.9,   88.1, -999.0
04-05-2022, 00:31:51,    125,    0.0,    9.3,   0.00,   0.00, 1015.9,   88.2, -999.0
04-05-2022, 00:32:00,    124,    0.0,    9.3,   0.00,   0.00, 1015.9,   88.3, -999.0
04-05-2022, 00:32:10,    125,    0.0,    9.3,   0.00,   0.00, 1015.9,   88.1, -999.0
04-05-2022, 00:32:21,    125,    0.0,    9.4,   0.00,   0.00, 1015.9,   88.2, -999.0
04-05-2022, 00:32:30,    125,    0.0,    9.4,   0.00,   0.00, 1015.9,   88.2, -999.0
04-05-2022, 00:32:40,    125,    0.0,    9.4,   0.00,   0.00, 1015.9,   88.2, -999.0
04-05-2022, 00:32:50,    125,    0.0,    9.3,   0.00,   0.00, 1015.9,   88.2, -999.0
04-05-2022, 00:33:00,    125,    0.0,    9.4,   0.00,   0.00, 1015.9,   88.3, -999.0
04-05-2022, 00:33:10,    125,    0.0,    9.4,   0.00,   0.00, 1015.9,   88.2, -999.0
04-05-2022, 00:33:20,    125,    0.0,    9.4,   0.00,   0.00, 1015.9,   88.3, -999.0
04-05-2022, 00:33:30,    125,    0.0,    9.3,   0.00,   0.00, 1015.9,   88.3, -999.0
04-05-2022, 00:33:40,    125,    0.0,    9.3,   0.00,   0.00, 1015.9,   88.4, -999.0
04-05-2022, 00:33:50,    125,    0.0,    9.3,   0.00,   0.00, 1015.9,   88.4, -999.0
04-05-2022, 00:34:00,    124,    0.0,    9.3,   0.00,   0.00, 1015.9,   88.4, -999.0
04-05-2022, 00:34:10,    125,    0.0,    9.3,   0.00,   0.00, 1015.9,   88.3, -999.0
04-05-2022, 00:34:20,    125,    0.0,    9.4,   0.00,   0.00, 1015.9,   88.5, -999.0
04-05-2022, 00:34:30,    125,    0.0,    9.3,   0.00,   0.00, 1015.9,   88.3, -999.0
04-05-2022, 00:34:40,    125,    0.0,    9.3,   0.00,   0.00, 1015.9,   88.2, -999.0
04-05-2022, 00:34:50,    125,    0.0,    9.4,   0.00,   0.00, 1015.9,   88.4, -999.0
04-05-2022, 00:35:00,    125,    0.0,    9.3,   0.00,   0.00, 1015.9,   88.3, -999.0
04-05-2022, 00:35:09,    125,    0.0,    9.3,   0.00,   0.00, 1015.9,   88.3, -999.0
04-05-2022, 00:35:20,    125,    0.0,    9.3,   0.00,   0.00, 1015.9,   88.3, -999.0
04-05-2022, 00:35:30,    125,    0.0,    9.3,   0.00,   0.00, 1015.9,   88.3, -999.0
04-05-2022, 00:35:39,    125,    0.0,    9.3,   0.00,   0.00, 1015.9,   88.5, -999.0
04-05-2022, 00:35:49,    125,    0.0,    9.4,   0.00,   0.00, 1015.9,   88.5, -999.0
04-05-2022, 00:35:59,    125,    0.0,    9.3,   0.00,   0.00, 1015.9,   88.4, -999.0
04-05-2022, 00:36:09,    125,    0.0,    9.3,   0.00,   0.00, 1015.9,   88.5, -999.0
04-05-2022, 00:36:19,    125,    0.0,    9.3,   0.00,   0.00, 1015.9,   88.6, -999.0
04-05-2022, 00:36:29,    125,    0.0,    9.3,   0.00,   0.00, 1015.9,   88.4, -999.0
04-05-2022, 00:36:39,    125,    0.0,    9.3,   0.00,   0.00, 1015.9,   88.5, -999.0
04-05-2022, 00:36:49,    125,    0.0,    9.4,   0.00,   0.00, 1015.9,   88.6, -999.0
04-05-2022, 00:36:59,    125,    0.0,    9.3,   0.00,   0.00, 1015.9,   88.5, -999.0
04-05-2022, 00:37:09,    125,    0.0,    9.4,   0.00,   0.00, 1015.9,   88.6, -999.0
04-05-2022, 00:37:19,    125,    0.0,    9.4,   0.00,   0.00, 1015.9,   88.6, -999.0
04-05-2022, 00:37:29,    125,    0.0,    9.4,   0.00,   0.00, 1015.9,   88.6, -999.0
04-05-2022, 00:37:39,    125,    0.0,    9.4,   0.00,   0.00, 1015.9,   88.6, -999.0
04-05-2022, 00:37:49,    125,    0.0,    9.4,   0.00,   0.00, 1015.9,   88.7, -999.0
04-05-2022, 00:37:59,    125,    0.0,    9.3,   0.00,   0.00, 1015.9,   88.8, -999.0
04-05-2022, 00:38:09,    124,    0.0,    9.3,   0.00,   0.00, 1015.8,   88.7, -999.0
04-05-2022, 00:38:18,    125,    0.0,    9.3,   0.00,   0.00, 1015.9,   88.8, -999.0
04-05-2022, 00:38:29,    125,    0.0,    9.3,   0.00,   0.00, 1015.9,   88.7, -999.0
04-05-2022, 00:38:39,    125,    0.0,    9.3,   0.00,   0.00, 1015.9,   88.7, -999.0
04-05-2022, 00:38:48,    124,    0.0,    9.3,   0.00,   0.00, 1015.9,   88.8, -999.0
04-05-2022, 00:38:59,    125,    0.0,    9.3,   0.00,   0.00, 1015.9,   88.9, -999.0
04-05-2022, 00:39:08,    125,    0.0,    9.3,   0.00,   0.00, 1015.8,   88.9, -999.0
04-05-2022, 00:39:18,    125,    0.0,    9.4,   0.00,   0.00, 1015.9,   88.8, -999.0
04-05-2022, 00:39:28,    124,    0.0,    9.3,   0.00,   0.00, 1015.9,   88.9, -999.0
04-05-2022, 00:39:38,    125,    0.0,    9.3,   0.00,   0.00, 1015.9,   88.9, -999.0
04-05-2022, 00:39:48,    125,    0.0,    9.4,   0.00,   0.00, 1015.9,   88.9, -999.0
04-05-2022, 00:39:58,    125,    0.0,    9.3,   0.00,   0.00, 1015.9,   89.0, -999.0
04-05-2022, 00:40:08,    125,    0.0,    9.2,   0.00,   0.00, 1015.9,   89.1, -999.0
04-05-2022, 00:40:18,    125,    0.0,    9.4,   0.00,   0.00, 1015.9,   89.1, -999.0
04-05-2022, 00:40:28,    125,    0.0,    9.4,   0.00,   0.00, 1015.9,   89.0, -999.0
04-05-2022, 00:40:38,    125,    0.0,    9.4,   0.00,   0.00, 1015.9,   89.0, -999.0
04-05-2022, 00:40:48,    125,    0.0,    9.4,   0.00,   0.00, 1015.9,   89.0, -999.0
04-05-2022, 00:40:58,    125,    0.0,    9.3,   0.00,   0.00, 1015.9,   89.0, -999.0
04-05-2022, 00:41:08,    124,    0.0,    9.3,   0.00,   0.00, 1015.9,   89.0, -999.0
04-05-2022, 00:41:18,    125,    0.0,    9.3,   0.00,   0.00, 1015.9,   89.1, -999.0
04-05-2022, 00:41:28,    124,    0.0,    9.4,   0.00,   0.00, 1015.9,   89.0, -999.0
04-05-2022, 00:41:38,    124,    0.0,    9.3,   0.00,   0.00, 1015.9,   89.1, -999.0
04-05-2022, 00:41:48,    125,    0.0,    9.4,   0.00,   0.00, 1015.9,   89.1, -999.0
04-05-2022, 00:41:57,    125,    0.0,    9.3,   0.00,   0.00, 1015.9,   89.0, -999.0
04-05-2022, 00:42:08,    125,    0.0,    9.3,   0.00,   0.00, 1015.9,   89.1, -999.0
04-05-2022, 00:42:18,    125,    0.0,    9.4,   0.00,   0.00, 1015.9,   89.2, -999.0
04-05-2022, 00:42:27,    125,    0.0,    9.3,   0.00,   0.00, 1015.8,   89.1, -999.0
04-05-2022, 00:42:37,    125,    0.0,    9.3,   0.00,   0.00, 1015.9,   89.2, -999.0
04-05-2022, 00:42:47,    125,    0.0,    9.4,   0.00,   0.00, 1015.8,   89.1, -999.0
04-05-2022, 00:42:57,    125,    0.0,    9.3,   0.00,   0.00, 1015.9,   89.2, -999.0
04-05-2022, 00:43:07,    125,    0.0,    9.4,   0.00,   0.00, 1015.8,   89.1, -999.0
04-05-2022, 00:43:17,    127,    0.0,    9.3,   0.00,   0.00, 1015.8,   89.2, -999.0
04-05-2022, 00:43:27,    125,    0.0,    9.3,   0.00,   0.00, 1015.9,   89.2, -999.0
04-05-2022, 00:43:37,    125,    0.0,    9.4,   0.00,   0.00, 1015.9,   89.1, -999.0
04-05-2022, 00:43:47,    125,    0.0,    9.4,   0.00,   0.00, 1015.9,   89.1, -999.0
04-05-2022, 00:43:57,    125,    0.0,    9.3,   0.00,   0.00, 1015.9,   89.1, -999.0
04-05-2022, 00:44:07,    124,    0.0,    9.3,   0.00,   0.00, 1015.9,   89.2, -999.0
04-05-2022, 00:44:17,    125,    0.0,    9.2,   0.00,   0.00, 1015.8,   89.2, -999.0
04-05-2022, 00:44:27,    125,    0.0,    9.3,   0.00,   0.00, 1015.8,   89.2, -999.0
04-05-2022, 00:44:37,    124,    0.0,    9.3,   0.00,   0.00, 1015.9,   89.2, -999.0
04-05-2022, 00:44:47,    125,    0.0,    9.4,   0.00,   0.00, 1015.9,   89.1, -999.0
04-05-2022, 00:44:57,    126,    0.0,    9.4,   0.00,   0.00, 1015.8,   89.1, -999.0
04-05-2022, 00:45:06,    125,    0.0,    9.3,   0.00,   0.00, 1015.8,   89.3, -999.0
04-05-2022, 00:45:17,    125,    0.0,    9.4,   0.00,   0.00, 1015.8,   89.3, -999.0
04-05-2022, 00:45:27,    125,    0.0,    9.3,   0.00,   0.00, 1015.8,   89.2, -999.0
04-05-2022, 00:45:36,    125,    0.0,    9.4,   0.00,   0.00, 1015.8,   89.3, -999.0
04-05-2022, 00:45:46,    124,    0.0,    9.4,   0.00,   0.00, 1015.8,   89.2, -999.0
04-05-2022, 00:45:56,    125,    0.0,    9.4,   0.00,   0.00, 1015.9,   89.4, -999.0
04-05-2022, 00:46:06,    125,    0.0,    9.4,   0.00,   0.00, 1015.8,   89.3, -999.0
04-05-2022, 00:46:16,    125,    0.0,    9.4,   0.00,   0.00, 1015.9,   89.3, -999.0
04-05-2022, 00:46:26,    125,    0.0,    9.4,   0.00,   0.00, 1015.8,   89.3, -999.0
04-05-2022, 00:46:36,    125,    0.0,    9.4,   0.00,   0.00, 1015.8,   89.3, -999.0